[[{"header":{"parameterUnit":"m.s-1","parameterCategory":1,"la1":30.2991,"la2":30.254,"lo1":-89.0895,"lo2":-89.0444,"dy":0.0017,"dx":0.0017,"nx":28,"ny":28,"refTime":"2025-08-27T03:00:00:Z","depth":0,"parameterNumber":2,"parameterNumberName":"U-component_of_WINDS"},"data":[0,0,0,0,0,0,0,0,0,0,0,0,0,0,0,0,0,0,0,0,0,0,0,0,0,0,0,0,0,0,0,0,0,0,0,0,0,0,0,0,0,0,0,0,0,0,0,0,0,0,0,0,0,0,0,0,0,0,-1.4576,-1.4577,0,-1.4698,-1.47,-1.4701,-1.4748,-1.4748,-1.4747,-1.4747,-1.4875,-1.4879,-1.4882,0,0,0,0,0,0,0,0,0,0,0,0,0,-1.4383,-1.4386,-1.4576,-1.4577,-1.4579,-1.4698,-1.47,-1.4702,-1.4748,-1.4748,-1.4747,-1.4747,-1.4874,-1.4878,-1.4883,0,0,0,0,0,0,0,0,0,0,0,0,0,-1.4482,-1.4387,-1.4575,-1.4616,-1.4621,-1.4698,-1.47,-1.4702,-1.4748,-1.4748,-1.4747,-1.4747,-1.4872,-1.4878,-1.4883,-1.4929,0,0,-1.4901,-1.4903,0,0,0,0,0,0,0,0,-1.4476,-1.4489,-1.4609,-1.4614,-1.4619,-1.4707,-1.4679,-1.4778,-1.4748,-1.47,-1.4747,-1.4746,-1.482,-1.483,-1.4854,-1.4935,-1.4941,-1.4901,-1.4904,-1.4907,-1.4908,0,0,0,0,0,0,0,-1.4469,-1.4484,-1.4624,-1.461,-1.4617,-1.4629,-1.4642,-1.4698,-1.4762,-1.4704,-1.4708,-1.4722,-1.4823,-1.4849,-1.4857,-1.4943,-1.4901,-1.4906,-1.4909,-1.4912,-1.5067,-1.5067,0,0,0,0,0,0,-1.4456,-1.4478,-1.462,-1.4628,-1.4545,-1.4633,-1.4648,-1.468,-1.4761,-1.4773,-1.4722,-1.4723,-1.4839,-1.4851,-1.4862,-1.4921,-1.4907,-1.4912,-1.4915,-1.5066,-1.5067,-1.5067,0,0,0,0,0,0,-1.4451,-1.4468,-1.4616,-1.4554,-1.4574,-1.4637,-1.4672,-1.4682,-1.4708,-1.4775,-1.4786,-1.4737,-1.4839,-1.4854,-1.4912,-1.4926,-1.4915,-1.492,-1.5065,-1.5066,-1.5067,-1.5038,0,0,0,0,0,0,-1.4445,-1.4466,-1.4484,-1.4554,-1.4577,-1.4663,-1.4673,-1.4685,-1.4718,-1.4721,-1.4791,-1.4803,-1.484,-1.4903,-1.4917,-1.4933,-1.4924,-1.5064,-1.5065,-1.5067,-1.5038,-1.5038,-1.5038,0,0,0,0,0,-1.4438,-1.4471,-1.4484,-1.4501,-1.46,-1.4663,-1.4676,-1.4718,-1.4719,-1.4737,-1.4779,-1.48,-1.4922,-1.4909,-1.4925,-1.4943,-1.5063,-1.5065,-1.5067,-1.5038,-1.5038,-1.5038,0,0,0,0,0,0,-1.4402,-1.4481,-1.4497,-1.4553,-1.4601,-1.4671,-1.4696,-1.4717,-1.4766,-1.4767,-1.4817,-1.4832,-1.4886,-1.492,-1.4904,-1.4991,-1.4994,-1.4999,-1.4966,-1.4967,-1.4967,-1.4958,-1.4929,0,0,0,0,0,-1.4401,-1.4445,-1.4512,-1.4555,-1.4578,-1.4633,-1.4662,-1.4689,-1.4741,-1.4762,-1.4809,-1.4858,-1.4908,-1.4939,-1.4989,-1.5043,-1.5059,-1.5063,-1.5063,-1.5063,-1.5067,-1.5097,-1.51,-1.5073,-1.5073,-1.5073,0,0,-1.4398,-1.4447,-1.4472,-1.4549,-1.4589,-1.4634,-1.4649,-1.4696,-1.473,-1.4769,-1.4826,-1.4862,-1.4921,-1.4977,-1.5004,-1.5007,-1.5077,-1.5065,-1.5064,-1.5068,-1.5099,-1.5102,-1.5104,-1.5074,-1.5074,-1.5074,0,0,-1.4417,-1.4458,-1.4498,-1.4538,-1.4598,-1.4634,-1.4643,-1.471,-1.4735,-1.4792,-1.4822,-1.4863,-1.4948,-1.4988,-1.502,-1.5052,-1.5073,-1.5066,-1.5066,-1.5096,-1.5098,-1.51,-1.5111,-1.5114,-1.507,-1.507,-1.507,0,-1.4406,-1.4474,-1.4516,-1.4561,-1.4594,-1.463,-1.4672,-1.4708,-1.4782,-1.4804,-1.4806,-1.4911,-1.4954,-1.5019,-1.5027,-1.5052,-1.5064,-1.5059,-1.5094,-1.5096,-1.5099,-1.511,-1.5114,-1.5069,-1.5069,-1.5069,-1.5069,0,-1.4458,-1.4504,-1.453,-1.4598,-1.4634,-1.4677,-1.4726,-1.4757,-1.4781,-1.4817,-1.4875,-1.4927,-1.4986,-1.5004,-1.5029,-1.5073,-1.5073,-1.5084,-1.5088,-1.51,-1.5111,-1.5115,-1.5067,-1.5067,-1.5068,-1.5068,0,0,-1.4458,-1.4548,-1.4557,-1.4588,-1.4656,-1.4693,-1.4738,-1.4795,-1.482,-1.487,-1.4908,-1.4978,-1.4988,-1.5023,-1.5053,-1.5079,-1.51,-1.5087,-1.5089,-1.5087,-1.5151,-1.5142,-1.5147,-1.5114,-1.5115,-1.5116,-1.5146,0,-1.4485,-1.4565,-1.4604,-1.4667,-1.471,-1.4744,-1.4783,-1.4829,-1.4863,-1.4905,-1.4943,-1.4991,-1.5001,-1.5023,-1.505,-1.5091,-1.5113,-1.509,-1.515,-1.5152,-1.5134,-1.5153,-1.5144,-1.517,-1.5151,-1.5152,-1.5152,0,-1.4528,-1.4575,-1.4642,-1.4704,-1.4724,-1.4757,-1.4813,-1.4852,-1.4905,-1.4928,-1.4967,-1.4996,-1.5043,-1.5044,-1.511,-1.5093,-1.512,-1.5144,-1.5147,-1.5154,-1.5153,-1.516,-1.5179,-1.5183,-1.516,-1.5159,-1.5159,0,-1.452,-1.4601,-1.4651,-1.4677,-1.4751,-1.4774,-1.4806,-1.4858,-1.4889,-1.4938,-1.4959,-1.5013,-1.5042,-1.5083,-1.5125,-1.5122,-1.5188,-1.5192,-1.5208,-1.5207,-1.5221,-1.522,-1.5245,-1.5238,-1.5238,-1.5238,-1.5238,0,-1.4546,-1.4586,-1.4649,-1.4679,-1.4724,-1.4769,-1.4812,-1.4847,-1.4893,-1.4931,-1.4965,-1.5,-1.5054,-1.5096,-1.5129,-1.5179,-1.5192,-1.5212,-1.5221,-1.5209,-1.5207,-1.5228,-1.5227,-1.5239,-1.5239,-1.5239,-1.5239,0,-1.4546,-1.459,-1.4646,-1.4711,-1.4728,-1.4759,-1.4814,-1.4846,-1.4881,-1.4929,-1.4943,-1.4998,-1.505,-1.5095,-1.5164,-1.5186,-1.5237,-1.5248,-1.5219,-1.5223,-1.5237,-1.5235,-1.5277,-1.5284,-1.5273,-1.5273,-1.5273,0,-1.456,-1.4591,-1.4658,-1.4686,-1.4717,-1.4761,-1.4793,-1.4837,-1.4869,-1.4931,-1.4955,-1.5008,-1.5054,-1.5134,-1.5181,-1.5233,-1.5245,-1.5256,-1.5254,-1.5241,-1.5245,-1.5243,-1.5246,-1.5256,-1.5256,-1.5256,-1.5256,0,-1.458,-1.4599,-1.4644,-1.4695,-1.4732,-1.4775,-1.4819,-1.484,-1.4893,-1.4927,-1.4979,-1.5014,-1.5083,-1.5136,-1.5193,-1.5227,-1.525,-1.5256,-1.5263,-1.5251,-1.5233,-1.5243,-1.5218,-1.5255,-1.5255,-1.5255,-1.5255,-1.5255,-1.4587,-1.4616,-1.4667,-1.4715,-1.4752,-1.4793,-1.4825,-1.4863,-1.4907,-1.4966,-1.499,-1.5043,-1.5094,-1.5173,-1.5207,-1.5249,-1.5254,-1.5263,-1.5266,-1.5267,-1.5265,-1.5226,-1.526,-1.526,-1.526,-1.526,-1.526,0,-1.4608,-1.4642,-1.4686,-1.4746,-1.4784,-1.4801,-1.485,-1.4881,-1.4927,-1.4972,-1.5015,-1.5075,-1.5126,-1.5176,-1.523,-1.5254,-1.5266,-1.5266,-1.5265,-1.5272,-1.5258,-1.5247,-1.5256,-1.5256,-1.5256,-1.5256,-1.5256,-1.5256,-1.4624,-1.4672,-1.4698,-1.4766,-1.48,-1.4851,-1.4878,-1.4915,-1.4952,-1.5016,-1.5058,-1.509,-1.5138,-1.5195,-1.5242,-1.5256,-1.5274,-1.5271,-1.5288,-1.5274,-1.5274,-1.5273,-1.5263,-1.5275,-1.5275,-1.5299,-1.5299,-1.5299]},{"header":{"parameterUnit":"m.s-1","parameterCategory":1,"la1":30.2991,"la2":30.254,"lo1":-89.0895,"lo2":-89.0444,"dy":0.0017,"dx":0.0017,"nx":28,"ny":28,"refTime":"2025-08-27T03:00:00:Z","depth":0,"parameterNumber":3,"parameterNumberName":"V-component_of_WINDS"},"data":[0,0,0,0,0,0,0,0,0,0,0,0,0,0,0,0,0,0,0,0,0,0,0,0,0,0,0,0,0,0,0,0,0,0,0,0,0,0,0,0,0,0,0,0,0,0,0,0,0,0,0,0,0,0,0,0,0,0,-0.4867,-0.4866,0,-0.4741,-0.474,-0.4739,-0.4632,-0.4631,-0.463,-0.4629,-0.4499,-0.4497,-0.4495,0,0,0,0,0,0,0,0,0,0,0,0,0,-0.5014,-0.5012,-0.4867,-0.4866,-0.4864,-0.4742,-0.474,-0.4738,-0.4632,-0.4631,-0.4629,-0.4628,-0.45,-0.4497,-0.4494,0,0,0,0,0,0,0,0,0,0,0,0,0,-0.4925,-0.5011,-0.4867,-0.4796,-0.4789,-0.4742,-0.474,-0.4738,-0.4633,-0.4631,-0.4629,-0.4627,-0.4501,-0.4497,-0.4494,-0.4507,0,0,-0.4483,-0.4482,0,0,0,0,0,0,0,0,-0.4931,-0.492,-0.4808,-0.4801,-0.4793,-0.4701,-0.4744,-0.466,-0.4633,-0.4692,-0.4629,-0.4627,-0.4568,-0.4558,-0.4539,-0.4501,-0.4496,-0.4483,-0.4481,-0.4479,-0.4478,0,0,0,0,0,0,0,-0.4937,-0.4925,-0.4817,-0.4807,-0.4797,-0.477,-0.4756,-0.4728,-0.4641,-0.4687,-0.4679,-0.4665,-0.4563,-0.4542,-0.4535,-0.4494,-0.4483,-0.448,-0.4478,-0.4476,-0.446,-0.4462,0,0,0,0,0,0,-0.4954,-0.4931,-0.4821,-0.4814,-0.4859,-0.4769,-0.4753,-0.4732,-0.4641,-0.4626,-0.4667,-0.4661,-0.4549,-0.4539,-0.453,-0.4539,-0.4479,-0.4476,-0.4474,-0.4458,-0.446,-0.4462,0,0,0,0,0,0,-0.4958,-0.4945,-0.4826,-0.487,-0.4853,-0.4769,-0.4746,-0.473,-0.471,-0.4626,-0.461,-0.4662,-0.4547,-0.4535,-0.4514,-0.4533,-0.4474,-0.4471,-0.4456,-0.4459,-0.4461,-0.4558,0,0,0,0,0,0,-0.4962,-0.4947,-0.4952,-0.4871,-0.4851,-0.4813,-0.4747,-0.4729,-0.4704,-0.4695,-0.4617,-0.4603,-0.4545,-0.4519,-0.451,-0.4527,-0.4468,-0.4454,-0.4457,-0.446,-0.4553,-0.4564,-0.4573,0,0,0,0,0,-0.4968,-0.4984,-0.4953,-0.494,-0.4855,-0.4814,-0.4803,-0.4736,-0.4706,-0.471,-0.4656,-0.4605,-0.4533,-0.4518,-0.4507,-0.4523,-0.4453,-0.4456,-0.446,-0.4548,-0.4562,-0.4573,0,0,0,0,0,0,-0.5069,-0.4972,-0.4936,-0.4927,-0.488,-0.4796,-0.4799,-0.4753,-0.4713,-0.4706,-0.4625,-0.4608,-0.4596,-0.4557,-0.4543,-0.4531,-0.4486,-0.4488,-0.4557,-0.4569,-0.4579,-0.4588,-0.4465,0,0,0,0,0,-0.5091,-0.5066,-0.4982,-0.4982,-0.496,-0.4884,-0.4864,-0.4817,-0.4765,-0.4744,-0.4689,-0.464,-0.4605,-0.4585,-0.4549,-0.4547,-0.4528,-0.4552,-0.4562,-0.4571,-0.4574,-0.4569,-0.4579,-0.4475,-0.4475,-0.4474,0,0,-0.5134,-0.5078,-0.5068,-0.5001,-0.4959,-0.4935,-0.4868,-0.4846,-0.4827,-0.474,-0.4717,-0.4675,-0.4615,-0.4603,-0.4595,-0.457,-0.4598,-0.4576,-0.4584,-0.4581,-0.4574,-0.4584,-0.4593,-0.4477,-0.4477,-0.4476,0,0,-0.5201,-0.5157,-0.5151,-0.5111,-0.5048,-0.4997,-0.4996,-0.492,-0.4888,-0.4864,-0.4798,-0.4775,-0.4718,-0.4677,-0.465,-0.4702,-0.4653,-0.4692,-0.4745,-0.4742,-0.475,-0.4757,-0.4775,-0.4783,-0.4695,-0.4695,-0.4695,0,-0.5263,-0.5225,-0.5154,-0.5136,-0.5108,-0.5029,-0.5023,-0.4987,-0.4916,-0.4899,-0.4872,-0.4799,-0.4752,-0.473,-0.4743,-0.4723,-0.4719,-0.4701,-0.4754,-0.4761,-0.4766,-0.4783,-0.479,-0.47,-0.47,-0.4699,-0.4699,0,-0.5305,-0.5279,-0.5282,-0.5216,-0.5189,-0.5177,-0.5104,-0.5084,-0.504,-0.4992,-0.4967,-0.4909,-0.486,-0.4851,-0.4807,-0.4822,-0.4809,-0.477,-0.4723,-0.4782,-0.4797,-0.4802,-0.4708,-0.4706,-0.4704,-0.4703,0,0,-0.5432,-0.5327,-0.5329,-0.5298,-0.5223,-0.5202,-0.5186,-0.5138,-0.5123,-0.5077,-0.5061,-0.5015,-0.4978,-0.4946,-0.4897,-0.4894,-0.4939,-0.4854,-0.4852,-0.4872,-0.4952,-0.4982,-0.4991,-0.4906,-0.4907,-0.4908,-0.4957,0,-0.5487,-0.5455,-0.5391,-0.5378,-0.5354,-0.5278,-0.5264,-0.5216,-0.5171,-0.5143,-0.5092,-0.5061,-0.5014,-0.4995,-0.4988,-0.4935,-0.4954,-0.493,-0.4891,-0.489,-0.4908,-0.4998,-0.503,-0.5079,-0.4962,-0.4963,-0.4963,0,-0.5548,-0.5506,-0.5492,-0.5418,-0.5405,-0.5394,-0.5345,-0.5319,-0.5263,-0.523,-0.5195,-0.5141,-0.512,-0.5077,-0.5046,-0.5032,-0.5011,-0.4983,-0.4983,-0.4977,-0.4931,-0.4995,-0.5093,-0.5101,-0.4971,-0.4971,-0.497,0,-0.5642,-0.5583,-0.5566,-0.5542,-0.5456,-0.5449,-0.5413,-0.5355,-0.5331,-0.5288,-0.5271,-0.5226,-0.5201,-0.5167,-0.5102,-0.5077,-0.5079,-0.503,-0.505,-0.5052,-0.5054,-0.5055,-0.5152,-0.5042,-0.5041,-0.5041,-0.5041,0,-0.5711,-0.5705,-0.5608,-0.5598,-0.5589,-0.5514,-0.5507,-0.5464,-0.5413,-0.5393,-0.5325,-0.5307,-0.5222,-0.5194,-0.5143,-0.5126,-0.5115,-0.5087,-0.5074,-0.5094,-0.5097,-0.5079,-0.5074,-0.5043,-0.5043,-0.5042,-0.5042,0,-0.5815,-0.575,-0.5727,-0.5647,-0.5627,-0.5624,-0.5555,-0.5542,-0.5493,-0.5468,-0.5458,-0.538,-0.5344,-0.5276,-0.522,-0.5186,-0.5179,-0.5156,-0.5199,-0.519,-0.5214,-0.5213,-0.5303,-0.5311,-0.5196,-0.5198,-0.5199,0,-0.5863,-0.5857,-0.5777,-0.5759,-0.5725,-0.5697,-0.5671,-0.5598,-0.5574,-0.551,-0.5505,-0.5463,-0.5426,-0.5372,-0.531,-0.5267,-0.5242,-0.5276,-0.5235,-0.5255,-0.5243,-0.5244,-0.5243,-0.5286,-0.5288,-0.5289,-0.529,0,-0.5956,-0.5924,-0.589,-0.5845,-0.5817,-0.5778,-0.5735,-0.5724,-0.564,-0.5617,-0.558,-0.5551,-0.5495,-0.5454,-0.5402,-0.5364,-0.5313,-0.5304,-0.5306,-0.5326,-0.5351,-0.5338,-0.5224,-0.5302,-0.5301,-0.53,-0.5299,-0.5299,-0.6033,-0.6024,-0.5966,-0.5931,-0.5891,-0.5853,-0.5837,-0.5786,-0.5753,-0.5702,-0.566,-0.5626,-0.557,-0.5495,-0.546,-0.5432,-0.5407,-0.5411,-0.5412,-0.5414,-0.5422,-0.5356,-0.5422,-0.5421,-0.5421,-0.5421,-0.542,0,-0.6122,-0.6081,-0.6049,-0.5992,-0.5964,-0.5919,-0.5869,-0.5849,-0.582,-0.5772,-0.5737,-0.5694,-0.5655,-0.559,-0.5545,-0.5535,-0.551,-0.5525,-0.5526,-0.5518,-0.5446,-0.5449,-0.5546,-0.5546,-0.5546,-0.5546,-0.5546,-0.5546,-0.6165,-0.6147,-0.6109,-0.607,-0.6029,-0.5996,-0.5971,-0.5935,-0.5896,-0.5852,-0.5819,-0.5777,-0.5722,-0.5672,-0.5634,-0.5615,-0.5602,-0.5625,-0.56,-0.5534,-0.5523,-0.5511,-0.5513,-0.5623,-0.5623,-0.5673,-0.5673,-0.5674]}]]